Estación Meteorológica de la Universidad de Murcia
Estación Meteorológica de la Universidad de Murcia
Universidad de Murcia
 

Humedad relativaHumedad relativa

 

Máxima: 76,7 % a las 08:41:00 del día 03/12/2020
Mínima: 30,9 % a las 14:28:00 del día 03/12/2020

||Humedad máxima últimos meses|| ---- ||Humedad mínima últimos meses||


Humedad máxima

  • 1 - 76,7 % del día 03/12/2020
  • 2 - 82,4 % del día 02/12/2020
  • 3 - 86,5 % del día 01/12/2020
  • 4 - 86,5 % del día 30/11/2020
  • 5 - 86,5 % del día 29/11/2020
  • 6 - 86,5 % del día 28/11/2020
  • 7 - 86,5 % del día 27/11/2020
  • 8 - 86,5 % del día 26/11/2020
  • 9 - 86,5 % del día 25/11/2020
  • 10 - 86,5 % del día 24/11/2020
  • 11 - 86,5 % del día 23/11/2020
  • 12 - 86,5 % del día 22/11/2020
  • 13 - 86,5 % del día 21/11/2020
  • 14 - 86,5 % del día 20/11/2020
  • 15 - 86,5 % del día 19/11/2020
  • 16 - 86,5 % del día 18/11/2020
  • 17 - 86,5 % del día 17/11/2020
  • 18 - 86,5 % del día 16/11/2020
  • 19 - 86,5 % del día 15/11/2020
  • 20 - 86,5 % del día 14/11/2020
  • 21 - 86,5 % del día 13/11/2020
  • 22 - 86,5 % del día 12/11/2020
  • 23 - 86,5 % del día 11/11/2020
  • 24 - 86,5 % del día 10/11/2020
  • 25 - 86,5 % del día 09/11/2020
  • 26 - 86,5 % del día 08/11/2020
  • 27 - 86,5 % del día 07/11/2020
  • 28 - 86,5 % del día 06/11/2020
  • 29 - 86,5 % del día 05/11/2020
  • 30 - 86,5 % del día 04/11/2020
  • 31 - 86,5 % del día 03/11/2020
  • 32 - 86,5 % del día 02/11/2020
  • 33 - 86,5 % del día 01/11/2020
  • 34 - 86,5 % del día 31/10/2020
  • 35 - 86,5 % del día 30/10/2020
  • 36 - 86,5 % del día 29/10/2020
  • 37 - 71,2 % del día 28/10/2020
  • 38 - 62,9 % del día 27/10/2020
  • 39 - 72,2 % del día 26/10/2020
  • 40 - 86,5 % del día 25/10/2020
  • 41 - 86,5 % del día 24/10/2020
  • 42 - 100 % del día 23/10/2020
  • 43 - 100 % del día 22/10/2020
  • 44 - 100 % del día 21/10/2020
  • 45 - 100 % del día 20/10/2020
  • 46 - 100 % del día 19/10/2020
  • 47 - 100 % del día 18/10/2020
  • 48 - 94,6 % del día 17/10/2020
  • 49 - 81,9 % del día 16/10/2020
  • 50 - 100 % del día 15/10/2020
  • 51 - 100 % del día 14/10/2020
  • 52 - 99 % del día 13/10/2020
  • 53 - 100 % del día 12/10/2020
  • 54 - 100 % del día 11/10/2020
  • 55 - 100 % del día 10/10/2020
  • 56 - 100 % del día 09/10/2020
  • 57 - 100 % del día 08/10/2020
  • 58 - 85 % del día 07/10/2020
  • 59 - 83,3 % del día 06/10/2020

||Volver al inicio de la página||


Humedad mínima

  • 1 - 30,9 % del día 03/12/2020
  • 2 - 26 % del día 02/12/2020
  • 3 - 40,2 % del día 01/12/2020
  • 4 - 52,3 % del día 30/11/2020
  • 5 - 39,4 % del día 29/11/2020
  • 6 - 45 % del día 28/11/2020
  • 7 - 71,5 % del día 27/11/2020
  • 8 - 46,8 % del día 26/11/2020
  • 9 - 50 % del día 25/11/2020
  • 10 - 49 % del día 24/11/2020
  • 11 - 40,9 % del día 23/11/2020
  • 12 - 37,9 % del día 22/11/2020
  • 13 - 34,2 % del día 21/11/2020
  • 14 - 47,7 % del día 20/11/2020
  • 15 - 50,9 % del día 19/11/2020
  • 16 - 53,9 % del día 18/11/2020
  • 17 - 41 % del día 17/11/2020
  • 18 - 38,9 % del día 16/11/2020
  • 19 - 38,9 % del día 15/11/2020
  • 20 - 74,9 % del día 14/11/2020
  • 21 - 42,5 % del día 13/11/2020
  • 22 - 39,2 % del día 12/11/2020
  • 23 - 43,1 % del día 11/11/2020
  • 24 - 36,5 % del día 10/11/2020
  • 25 - 28,6 % del día 09/11/2020
  • 26 - 42,6 % del día 08/11/2020
  • 27 - 56 % del día 07/11/2020
  • 28 - 56 % del día 06/11/2020
  • 29 - 65,4 % del día 05/11/2020
  • 30 - 54,6 % del día 04/11/2020
  • 31 - 52 % del día 03/11/2020
  • 32 - 31,9 % del día 02/11/2020
  • 33 - 26,4 % del día 01/11/2020
  • 34 - 26,9 % del día 31/10/2020
  • 35 - 30,7 % del día 30/10/2020
  • 36 - 34,6 % del día 29/10/2020
  • 37 - 31,9 % del día 28/10/2020
  • 38 - 21,1 % del día 27/10/2020
  • 39 - 25,2 % del día 26/10/2020
  • 40 - 24,3 % del día 25/10/2020
  • 41 - 28,7 % del día 24/10/2020
  • 42 - 31,8 % del día 23/10/2020
  • 43 - 63,8 % del día 22/10/2020
  • 44 - 33,2 % del día 21/10/2020
  • 45 - 63,2 % del día 20/10/2020
  • 46 - 48,2 % del día 19/10/2020
  • 47 - 32,1 % del día 18/10/2020
  • 48 - 21 % del día 17/10/2020
  • 49 - 24,2 % del día 16/10/2020
  • 50 - 23,8 % del día 15/10/2020
  • 51 - 28 % del día 14/10/2020
  • 52 - 25,6 % del día 13/10/2020
  • 53 - 23,9 % del día 12/10/2020
  • 54 - 27,4 % del día 11/10/2020
  • 55 - 59,2 % del día 10/10/2020
  • 56 - 52,4 % del día 09/10/2020
  • 57 - 54,7 % del día 08/10/2020
  • 58 - 17,2 % del día 07/10/2020
  • 59 - 25,3 % del día 06/10/2020

 

|| Temperatura Ambiente|| Velocidad y dirección del viento|| Precipitación|| Radiación Solar Global y PAR|| Temperatura y humedad del suelo|| Presión atmosférica|| Más información|| Volver a la página principal|| Volver al inicio de la página||


Estación Meteorológica de la Universidad de Murcia
http://estacion.um.es/
Informacion actualizada a: 05/12/2020 a las 06:57:00